2022-02-09 00:03:07 r, 17.56m,0000000008Hz,0000058050c,0000000.126s, 012.2C,00002191
2022-02-09 00:13:06 r, 17.43m,0000000009Hz,0000051525c,0000000.112s, 012.2C,00002191
2022-02-09 00:23:07 r, 17.44m,0000000008Hz,0000051901c,0000000.113s, 011.9C,00002191
2022-02-09 00:33:08 r, 17.42m,0000000009Hz,0000050844c,0000000.110s, 011.9C,00002191
2022-02-09 00:43:06 r, 17.40m,0000000009Hz,0000049934c,0000000.108s, 011.9C,00002191
2022-02-09 00:53:06 r, 17.37m,0000000009Hz,0000048675c,0000000.106s, 011.9C,00002191
2022-02-09 01:03:06 r, 17.45m,0000000009Hz,0000052465c,0000000.114s, 012.2C,00002191
2022-02-09 01:13:06 r, 17.47m,0000000009Hz,0000053436c,0000000.116s, 011.9C,00002191
2022-02-09 01:23:08 r, 17.44m,0000000009Hz,0000051965c,0000000.113s, 011.9C,00002191
2022-02-09 01:33:07 r, 17.45m,0000000009Hz,0000052540c,0000000.114s, 011.9C,00002191
2022-02-09 01:43:06 r, 17.48m,0000000008Hz,0000053849c,0000000.117s, 011.6C,00002191
2022-02-09 01:53:06 r, 17.51m,0000000008Hz,0000055451c,0000000.120s, 011.6C,00002191
2022-02-09 02:03:06 r, 17.59m,0000000007Hz,0000059593c,0000000.129s, 011.6C,00002191
2022-02-09 02:13:06 r, 17.75m,0000000007Hz,0000069313c,0000000.150s, 011.2C,00002191
2022-02-09 02:23:07 r, 17.56m,0000000008Hz,0000058061c,0000000.126s, 011.2C,00002191
2022-02-09 02:33:08 r, 17.62m,0000000008Hz,0000061066c,0000000.133s, 011.2C,00002191
2022-02-09 02:43:06 r, 17.73m,0000000007Hz,0000067843c,0000000.147s, 010.9C,00002191
2022-02-09 02:53:07 r, 17.59m,0000000008Hz,0000059661c,0000000.129s, 010.9C,00002191
2022-02-09 03:03:07 r, 17.56m,0000000008Hz,0000057930c,0000000.126s, 010.6C,00002191
2022-02-09 03:13:06 r, 17.63m,0000000008Hz,0000061729c,0000000.134s, 010.6C,00002191
2022-02-09 03:23:08 r, 17.72m,0000000007Hz,0000067199c,0000000.146s, 010.6C,00002191
2022-02-09 03:33:07 r, 18.11m,0000000005Hz,0000095526c,0000000.207s, 010.3C,00002191
2022-02-09 03:43:06 r, 17.93m,0000000006Hz,0000081220c,0000000.176s, 010.3C,00002191
2022-02-09 03:53:08 r, 17.84m,0000000007Hz,0000074341c,0000000.161s, 009.9C,00002191
2022-02-09 04:03:07 r, 17.87m,0000000006Hz,0000076771c,0000000.167s, 009.9C,00002191
2022-02-09 04:13:06 r, 17.74m,0000000007Hz,0000068534c,0000000.149s, 009.6C,00002191
2022-02-09 04:23:07 r, 17.96m,0000000005Hz,0000083386c,0000000.181s, 009.6C,00002191
2022-02-09 04:33:07 r, 17.99m,0000000005Hz,0000085725c,0000000.186s, 009.6C,00002191
2022-02-09 04:43:06 r, 17.82m,0000000006Hz,0000073410c,0000000.159s, 009.3C,00002191
2022-02-09 04:53:07 r, 17.59m,0000000008Hz,0000059010c,0000000.128s, 009.3C,00002191
2022-02-09 05:03:07 r, 17.59m,0000000008Hz,0000059202c,0000000.128s, 009.3C,00002191
2022-02-09 05:13:06 r, 17.60m,0000000008Hz,0000059793c,0000000.130s, 009.0C,00002191
2022-02-09 05:23:07 r, 17.56m,0000000008Hz,0000057604c,0000000.125s, 009.0C,00002191
2022-02-09 05:33:08 r, 17.56m,0000000008Hz,0000057427c,0000000.125s, 009.0C,00002191
2022-02-09 05:43:06 r, 17.62m,0000000007Hz,0000060598c,0000000.132s, 009.0C,00002191
2022-02-09 05:53:08 r, 17.63m,0000000008Hz,0000061637c,0000000.134s, 008.7C,00002191
2022-02-09 06:03:07 r, 17.56m,0000000008Hz,0000057892c,0000000.126s, 008.7C,00002191
2022-02-09 06:13:06 r, 17.51m,0000000008Hz,0000055466c,0000000.120s, 008.3C,00002191
2022-02-09 06:23:06 r, 17.48m,0000000009Hz,0000053877c,0000000.117s, 008.3C,00002191
2022-02-09 06:33:07 r, 17.48m,0000000009Hz,0000053914c,0000000.117s, 008.0C,00002191
2022-02-09 06:43:06 r, 17.48m,0000000008Hz,0000053765c,0000000.117s, 008.0C,00002191
2022-02-09 06:53:06 r, 16.98m,0000000014Hz,0000033966c,0000000.074s, 007.7C,00002191
2022-02-09 07:03:08 r, 15.73m,0000000043Hz,0000010757c,0000000.023s, 007.7C,00002191
2022-02-09 07:13:06 r, 13.86m,0000000241Hz,0000000000c,0000000.000s, 007.4C,00002191
2022-02-09 07:23:06 r, 11.73m,0000001714Hz,0000000000c,0000000.000s, 007.4C,00002191
2022-02-09 07:33:08 r, 09.82m,0000010016Hz,0000000000c,0000000.000s, 007.4C,00002191
2022-02-09 07:43:06 r, 08.38m,0000037798Hz,0000000000c,0000000.000s, 007.0C,00002191
2022-02-09 07:53:06 r, 07.41m,0000091977Hz,0000000000c,0000000.000s, 007.0C,00002191
2022-02-09 08:03:07 r, 06.61m,0000191375Hz,0000000000c,0000000.000s, 006.7C,00002191
2022-02-09 08:13:06 r, 05.83m,0000391896Hz,0000000000c,0000000.000s, 006.7C,00002191
2022-02-09 08:23:06 r, 00.00m,0000488886Hz,0000000000c,0000000.000s, 006.7C,00002191
2022-02-09 08:33:06 r, 00.00m,0000598691Hz,0000000000c,0000000.000s, 007.0C,00002191
2022-02-09 08:43:06 r, 00.00m,0000598602Hz,0000000000c,0000000.000s, 006.7C,00002191
2022-02-09 08:53:06 r, 00.00m,0000598794Hz,0000000000c,0000000.000s, 006.7C,00002191
2022-02-09 09:03:07 r, 00.00m,0000598677Hz,0000000000c,0000000.000s, 006.7C,00002191
2022-02-09 09:13:06 r, 00.00m,0000598803Hz,0000000000c,0000000.000s, 006.7C,00002191
2022-02-09 09:23:06 r, 00.00m,0000598713Hz,0000000000c,0000000.000s, 006.4C,00002191
2022-02-09 09:33:08 r, 00.00m,0000598727Hz,0000000000c,0000000.000s, 006.7C,00002191
2022-02-09 09:43:06 r, 00.00m,0000598605Hz,0000000000c,0000000.000s, 006.7C,00002191
2022-02-09 09:53:06 r, 00.00m,0000598595Hz,0000000000c,0000000.000s, 007.7C,00002191
2022-02-09 10:03:08 r, 00.00m,0000598594Hz,0000000000c,0000000.000s, 008.3C,00002191
2022-02-09 10:13:06 r, 00.00m,0000598478Hz,0000000000c,0000000.000s, 008.7C,00002191
2022-02-09 10:23:06 r, 00.00m,0000598399Hz,0000000000c,0000000.000s, 009.0C,00002191
2022-02-09 10:33:06 r, 00.00m,0000598402Hz,0000000000c,0000000.000s, 009.3C,00002191
2022-02-09 10:43:06 r, 00.00m,0000598401Hz,0000000000c,0000000.000s, 009.9C,00002191
2022-02-09 10:53:06 r, 00.00m,0000598315Hz,0000000000c,0000000.000s, 009.9C,00002191
2022-02-09 11:03:06 r, 00.00m,0000598348Hz,0000000000c,0000000.000s, 009.9C,00002191
2022-02-09 11:13:06 r, 00.00m,0000598234Hz,0000000000c,0000000.000s, 010.3C,00002191
2022-02-09 11:23:06 r, 00.00m,0000598407Hz,0000000000c,0000000.000s, 010.3C,00002191
2022-02-09 11:33:07 r, 00.00m,0000598191Hz,0000000000c,0000000.000s, 010.6C,00002191
2022-02-09 11:43:06 r, 00.00m,0000598294Hz,0000000000c,0000000.000s, 010.9C,00002191
2022-02-09 11:53:06 r, 00.00m,0000598116Hz,0000000000c,0000000.000s, 011.2C,00002191
2022-02-09 12:03:08 r, 00.00m,0000598200Hz,0000000000c,0000000.000s, 011.2C,00002191
2022-02-09 12:13:06 r, 00.00m,0000598108Hz,0000000000c,0000000.000s, 011.2C,00002191
2022-02-09 12:23:06 r, 00.00m,0000598233Hz,0000000000c,0000000.000s, 011.2C,00002191
2022-02-09 12:33:08 r, 00.00m,0000598181Hz,0000000000c,0000000.000s, 011.6C,00002191
2022-02-09 12:43:06 r, 00.00m,0000598238Hz,0000000000c,0000000.000s, 011.2C,00002191
2022-02-09 12:53:06 r, 00.00m,0000598209Hz,0000000000c,0000000.000s, 011.2C,00002191
2022-02-09 13:03:07 r, 00.00m,0000598159Hz,0000000000c,0000000.000s, 011.6C,00002191
2022-02-09 13:13:07 r, 00.00m,0000598117Hz,0000000000c,0000000.000s, 011.6C,00002191
2022-02-09 13:23:06 r, 00.00m,0000598150Hz,0000000000c,0000000.000s, 011.9C,00002191
2022-02-09 13:33:07 r, 00.00m,0000598250Hz,0000000000c,0000000.000s, 011.6C,00002191
2022-02-09 13:43:06 r, 00.00m,0000598179Hz,0000000000c,0000000.000s, 011.2C,00002191
2022-02-09 13:53:06 r, 00.00m,0000598210Hz,0000000000c,0000000.000s, 010.9C,00002191
2022-02-09 14:03:06 r, 00.00m,0000598204Hz,0000000000c,0000000.000s, 010.6C,00002191
2022-02-09 14:13:08 r, 00.00m,0000598210Hz,0000000000c,0000000.000s, 010.6C,00002191
2022-02-09 14:23:06 r, 00.00m,0000598248Hz,0000000000c,0000000.000s, 010.6C,00002191
2022-02-09 14:33:06 r, 00.00m,0000598227Hz,0000000000c,0000000.000s, 010.3C,00002191
2022-02-09 14:43:06 r, 00.00m,0000598345Hz,0000000000c,0000000.000s, 010.3C,00002191
2022-02-09 14:53:06 r, 00.00m,0000598354Hz,0000000000c,0000000.000s, 010.3C,00002191
2022-02-09 15:03:07 r, 00.00m,0000598241Hz,0000000000c,0000000.000s, 010.3C,00002191
2022-02-09 15:13:07 r, 00.00m,0000598338Hz,0000000000c,0000000.000s, 009.9C,00002191
2022-02-09 15:23:06 r, 00.00m,0000598387Hz,0000000000c,0000000.000s, 009.6C,00002191
2022-02-09 15:33:06 r, 00.00m,0000598339Hz,0000000000c,0000000.000s, 009.3C,00002191
2022-02-09 15:43:08 r, 00.00m,0000598406Hz,0000000000c,0000000.000s, 009.0C,00002191
2022-02-09 15:53:06 r, 00.00m,0000598487Hz,0000000000c,0000000.000s, 008.3C,00002191
2022-02-09 16:03:07 r, 00.00m,0000598544Hz,0000000000c,0000000.000s, 008.0C,00002191
2022-02-09 16:13:06 r, 00.00m,0000598670Hz,0000000000c,0000000.000s, 007.7C,00002191
2022-02-09 16:23:06 r, 00.00m,0000598621Hz,0000000000c,0000000.000s, 007.4C,00002191
2022-02-09 16:33:08 r, 00.00m,0000598631Hz,0000000000c,0000000.000s, 006.7C,00002191
2022-02-09 16:43:06 r, 00.00m,0000598810Hz,0000000000c,0000000.000s, 006.4C,00002191
2022-02-09 16:53:06 r, 00.00m,0000598804Hz,0000000000c,0000000.000s, 006.1C,00002191
2022-02-09 17:03:08 r, 00.00m,0000572265Hz,0000000000c,0000000.000s, 005.4C,00002191
2022-02-09 17:13:06 r, 05.82m,0000395688Hz,0000000000c,0000000.000s, 005.1C,00002191
2022-02-09 17:23:06 r, 06.35m,0000244486Hz,0000000000c,0000000.000s, 004.8C,00002191
2022-02-09 17:33:06 r, 07.05m,0000128493Hz,0000000000c,0000000.000s, 004.5C,00002191
2022-02-09 17:43:07 r, 08.06m,0000050644Hz,0000000000c,0000000.000s, 004.5C,00002191
2022-02-09 17:53:06 r, 09.52m,0000013234Hz,0000000000c,0000000.000s, 004.1C,00002191
2022-02-09 18:03:07 r, 11.39m,0000002355Hz,0000000000c,0000000.000s, 004.1C,00002191
2022-02-09 18:13:06 r, 13.52m,0000000331Hz,0000000000c,0000000.000s, 003.8C,00002191
2022-02-09 18:23:06 r, 15.34m,0000000062Hz,0000007500c,0000000.016s, 003.8C,00002191
2022-02-09 18:33:07 r, 16.52m,0000000021Hz,0000022161c,0000000.048s, 003.8C,00002191
2022-02-09 18:43:08 r, 16.99m,0000000013Hz,0000034545c,0000000.075s, 003.8C,00002191
2022-02-09 18:53:06 r, 17.16m,0000000011Hz,0000040226c,0000000.087s, 003.8C,00002191
2022-02-09 19:03:06 r, 17.18m,0000000011Hz,0000040806c,0000000.089s, 003.8C,00002191
2022-02-09 19:13:06 r, 17.07m,0000000013Hz,0000036970c,0000000.080s, 003.8C,00002191
2022-02-09 19:23:06 r, 16.93m,0000000013Hz,0000032406c,0000000.070s, 003.5C,00002191
2022-02-09 19:33:08 r, 16.73m,0000000015Hz,0000026930c,0000000.058s, 003.5C,00002191
2022-02-09 19:43:06 r, 16.66m,0000000018Hz,0000025311c,0000000.055s, 003.2C,00002191
2022-02-09 19:53:06 r, 16.84m,0000000014Hz,0000029854c,0000000.065s, 002.9C,00002191
2022-02-09 20:03:06 r, 16.91m,0000000013Hz,0000031814c,0000000.069s, 002.5C,00002191
2022-02-09 20:13:07 r, 17.20m,0000000012Hz,0000041497c,0000000.090s, 002.5C,00002191
2022-02-09 20:23:06 r, 17.19m,0000000011Hz,0000041079c,0000000.089s, 002.5C,00002191
2022-02-09 20:33:07 r, 17.06m,0000000013Hz,0000036736c,0000000.080s, 002.9C,00002191
2022-02-09 20:43:06 r, 17.22m,0000000011Hz,0000042547c,0000000.092s, 002.9C,00002191
2022-02-09 20:53:06 r, 17.06m,0000000012Hz,0000036749c,0000000.080s, 002.9C,00002191
2022-02-09 21:03:06 r, 17.21m,0000000011Hz,0000042160c,0000000.091s, 003.2C,00002191
2022-02-09 21:13:08 r, 17.28m,0000000010Hz,0000044811c,0000000.097s, 003.2C,00002191
2022-02-09 21:23:06 r, 17.34m,0000000010Hz,0000047245c,0000000.103s, 003.2C,00002191
2022-02-09 21:33:08 r, 17.22m,0000000011Hz,0000042341c,0000000.092s, 003.5C,00002191
2022-02-09 21:43:06 r, 17.24m,0000000011Hz,0000043205c,0000000.094s, 003.5C,00002191
2022-02-09 21:53:06 r, 17.37m,0000000010Hz,0000048535c,0000000.105s, 003.5C,00002191
2022-02-09 22:03:08 r, 17.41m,0000000009Hz,0000050198c,0000000.109s, 003.5C,00002191
2022-02-09 22:13:06 r, 17.39m,0000000009Hz,0000049595c,0000000.108s, 003.5C,00002191
2022-02-09 22:23:06 r, 17.54m,0000000009Hz,0000057037c,0000000.124s, 003.5C,00002191
2022-02-09 22:33:07 r, 18.28m,0000000004Hz,0000112189c,0000000.243s, 003.5C,00002191
2022-02-09 22:43:06 r, 18.10m,0000000005Hz,0000095336c,0000000.207s, 003.5C,00002191
2022-02-09 22:53:06 r, 17.73m,0000000007Hz,0000067730c,0000000.147s, 003.2C,00002191
2022-02-09 23:03:06 r, 17.86m,0000000006Hz,0000076794c,0000000.167s, 003.2C,00002191
2022-02-09 23:13:06 r, 17.60m,0000000008Hz,0000060152c,0000000.131s, 002.9C,00002191
2022-02-09 23:23:06 r, 17.43m,0000000009Hz,0000051586c,0000000.112s, 002.9C,00002191
2022-02-09 23:33:06 r, 17.56m,0000000008Hz,0000058165c,0000000.126s, 003.2C,00002191
2022-02-09 23:43:08 r, 17.51m,0000000009Hz,0000055502c,0000000.120s, 003.2C,00002191
2022-02-09 23:53:06 r, 17.42m,0000000009Hz,0000050832c,0000000.110s, 003.5C,00002191
